Погода в Прииртышьем

Россия / Омская область     54°31′52″N   74°05′52″E
темп.,
°C
ветер,
м/с
пор.,
м/с
влажн.,
%
обл.,
%
осадки,
мм/ч
давл.,
гПа
погр.,
м
14 мая, пт
пт1400:00+12с369163 0.0 1021120
03:00+11ссв378310 0.0 1023188
06:00+9ссв37893 0.0 1025163
09:00+13ссв35675 0.0 1026750
12:00+17с45400 0.0 10271313
15:00+20ссз45265 0.0 10261553
18:00+21ссз44249 0.0 10261432
21:00+17зсз22350 0.0 102611
15 мая, сб
сб1500:00+15зюз33395 0.0 102523
03:00+14юз45445 0.0 102569
06:00+13юз4104859 0.0 1024167
09:00+20зюз6936100 0.0 1023406
12:00+26з783347 0.0 1021989
15:00+29зсз7828100 0.0 10202417
18:00+29сз68276 0.0 10183020
21:00+24зюз22393 0.0 101711
16 мая, вс
вс1600:00+20зсз3653100 0.1 1017104
03:00+17з5146592 0.6 1017301
06:00+17з4116478 0.8 1016255
09:00+21зсз69527 0.4 1016455
12:00+26сз68361 0.4 10161449
15:00+27ссз783025 0.0 10162157
18:00+27ссз673056 0.0 10162056
21:00+22зсз22467 0.0 101611
17 мая, пн
пн1700:00+21юз464992 0.0 101574
03:00+19зюз48575 0.0 1015117
06:00+18з48576 0.0 1015121
09:00+25зсз57369 0.0 1016329
12:00+30зсз510225 0.0 10153177
15:00+32сз79195 0.0 10143894
18:00+30сз682447 0.0 10132464
21:00+25з233584 0.0 101314
18 мая, вт
вт1800:00+24зюз101739100 0.0 1013567
03:00+21з385197 0.0 1011181
06:00+19зюз410566 0.0 1010198
09:00+23зсз7114196 0.0 1009714
12:00+25с56427 0.0 10091368
15:00+27сз683422 0.0 10092727
18:00+24ссв34456 0.0 1008494
21:00+19сз61164100 0.4 1009917